Location: Helensbirgh
(56.0153°N, 4.7348°W)
Time: 15:21:45
(UTC+00:00)

N. Korean satellite - Visible Passes

Search period start: 19 February 2019 00:00
Search period end: 01 March 2019 00:00
Orbit: 457 x 510 km, 97.2° (Epoch: 18 February)

Date Brightness Start Highest point End Pass type
(mag) Time Alt. Az. Time Alt. Az. Time Alt. Az.
19 Feb 7.3 06:32:27 10° NNE 06:35:55 55° E 06:39:19 10° S visible
19 Feb 10.1 18:50:30 10° WSW 18:52:37 15° W 18:54:43 10° NW visible
20 Feb 8.7 06:07:54 10° NNE 06:11:04 30° E 06:14:10 10° SSE visible
20 Feb 9.4 18:24:38 10° SSW 18:27:38 24° W 18:30:39 10° NW visible
21 Feb 9.7 05:43:38 10° NE 05:46:07 18° E 05:48:34 10° SE visible
22 Feb 10.3 05:20:17 10° ENE 05:21:05 11° E 05:21:53 10° E visible
22 Feb 6.5 06:51:38 10° NNE 06:55:09 89° SSE 06:58:35 10° SSW visible
23 Feb 7.6 06:26:56 10° NNE 06:30:20 48° E 06:33:41 10° S visible
23 Feb 10.0 18:44:42 10° SW 18:47:01 16° W 18:49:19 10° NW visible
24 Feb 8.9 06:02:25 10° NE 06:05:27 27° E 06:08:26 10° SSE visible
24 Feb 9.3 18:18:57 10° SSW 18:22:03 26° W 18:25:08 10° NW visible
25 Feb 9.9 05:38:14 10° NE 05:40:29 16° E 05:42:42 10° SE visible
26 Feb 10.7 19:05:42 10° W 19:06:25 10° W 19:07:06 10° WNW visible
27 Feb 8.0 06:21:23 10° NNE 06:24:42 42° E 06:27:59 10° S visible
27 Feb 9.9 18:38:54 10° SW 18:41:22 18° W 18:43:51 10° NW visible
28 Feb 9.2 05:56:55 10° NE 05:59:48 24° E 06:02:39 10° SSE visible
